Regional Weather Roundup
Issued by NWS

Home | Current Version | Previous Version | Text Only | Print | Product List | Glossary On
Versions: 1 2 3 4 5 6 7 8 9 10 11 12 13 14 15 16 17 18 19 20 21 22 23 24 25 26 27
000
ASUS46 KSEW 230510
RWRWA

WASHINGTON REGIONAL WEATHER ROUNDUP
NATIONAL WEATHER SERVICE SEATTLE WA
1000 PM PDT SUN APR 22 2018

NOTE:"FAIR" INDICATES FEW OR NO CLOUDS BELOW 12,000 FEET WITH NO
SIGNIFICANT WEATHER AND/OR OBSTRUCTIONS TO VISIBILITY.

WAZ507-509-555>559-230600-
SEATTLE, TACOMA, EVERETT, AND VICINITY

CITY           SKY/WX    TMP DP  RH WIND       PRES   REMARKS
EVERETT        CLEAR     48  40  73 NW7       30.33S
BOEING FIELD   CLEAR     51  37  58 NW5       30.33R
RENTON         CLEAR     50  41  71 NW7       30.32R
SEATAC AIRPORT CLEAR     49  37  63 NW7       30.33R
JBLM-MCCHORD   CLEAR     49  39  69 N7        30.33R
PUYALLUP       FAIR      45  39  81 CALM      30.32R
BREMERTON      CLEAR     48  32  53 NE8       30.33S
JBLM-FT LEWIS  CLEAR     50  37  62 N7        30.32R
TACOMA NARROWS CLEAR     49  36  61 NE6       30.32S
$$

WAZ001-503-506-510-514-515-230600-
NORTH INTERIOR

CITY           SKY/WX    TMP DP  RH WIND       PRES   REMARKS
BELLINGHAM     CLEAR     45  41  86 CALM      30.34R
FRIDAY HARBOR  CLEAR     43  32  65 W3        30.36R
EASTSOUND      CLEAR     45  39  81 CALM      30.34S
PORT ANGELES   CLEAR     41  35  79 W3        30.36S
EDIZ HOOK      FAIR      47  38  69 W6        30.36S
PORT TOWNSEND  FAIR      43  34  70 CALM      30.35S
NAS WHIDBEY    NOT AVBL
ARLINGTON      CLEAR     47  38  71 NW8       30.34R
BURLINGTON     CLEAR     46  39  76 W7        30.34S
$$

WAZ020-022-039-040-504-511-512-230600-
SOUTHWEST INTERIOR

CITY           SKY/WX    TMP DP  RH WIND       PRES   REMARKS
SHELTON        CLEAR     48  34  58 N3        30.30S
OLYMPIA        CLEAR     48  33  56 N5        30.32S
CHEHALIS       FAIR      48  39  71 CALM      30.32R
KELSO          CLEAR     51  34  52 N6        30.29R
VANCOUVER      CLEAR     54  35  48 NW6       30.25R
SCAPPOOSE, OR  CLEAR     54  30  40 NW6       30.26R
PORTLAND, OR   CLEAR     53  36  52 W9        30.26R
$$

WAZ021-516-517-230600-
WASHINGTON COAST

CITY           SKY/WX    TMP DP  RH WIND       PRES   REMARKS
FORKS          CLEAR     45  40  82 N8        30.34R
HOQUIAM        CLEAR     49  42  77 SW5       30.33R
ASTORIA, OR    CLEAR     46  40  79 W5        30.30R
$$

WAZ019-023-024-040-567>569-230600-
CASCADE MOUNTAINS AND COLUMBIA GORGE

CITY           SKY/WX    TMP DP  RH WIND       PRES   REMARKS
STAMPEDE PASS  NOT AVBL
TROUTDALE, OR  CLEAR     55  36  48 W7        30.25R
HOOD RIVER, OR CLEAR     48  34  57 CALM      30.26R HAZE
THE DALLES, OR CLEAR     46  35  65 CALM      30.26R
$$

WAZ026-027-041>044-520-521-230600-
EAST SLOPES

CITY           SKY/WX    TMP DP  RH WIND       PRES   REMARKS
OMAK           CLEAR     47  24  40 NW8       30.29R
WENATCHEE      CLEAR     53  22  29 W5        30.27R
ELLENSBURG     CLEAR     48  32  53 N7        30.26R
YAKIMA         CLEAR     48  28  46 W5        30.27R
SUNNYSIDE ARPT CLEAR     42  28  56 CALM      30.27R
YAKIMA TC      NOT AVBL
$$

WAZ028-034-035-230600-
COLUMBIA BASIN

CITY           SKY/WX    TMP DP  RH WIND       PRES   REMARKS
EPHRATA        CLEAR     53  19  26 NW9       30.25R
MOSES LAKE     CLEAR     46  24  42 NE6       30.25R
PASCO          CLEAR     46  35  65 NW3       30.25S
RICHLAND ARPT  CLEAR     47  33  57 W3        30.26R
HERMISTON, OR  CLEAR     44  34  67 S9        30.25R
$$

WAZ036>038-230600-
NORTHEAST WASHINGTON

CITY           SKY/WX    TMP DP  RH WIND       PRES   REMARKS
SPOKANE GEIGER CLEAR     47  25  42 W5        30.23S
SPOKANE FELTS  CLEAR     42  30  62 CALM      30.23S
FAIRCHILD AFB  CLEAR     42  26  52 CALM      30.23R
COEURDALENE,ID CLEAR     41  32  70 CALM      30.24R
DEER PARK      CLEAR     35  26  69 NW6       30.23S
$$

WAZ029>033-230600-
SOUTHEAST WASHINGTON

CITY           SKY/WX    TMP DP  RH WIND       PRES   REMARKS
PULLMAN        CLEAR     42  26  53 NW5       30.24S
LEWISTON, ID   CLEAR     48  29  47 SW6       30.23R
WALLA WALLA    CLEAR     46  33  60 E6        30.25R
PENDLETON, OR  CLEAR     44  27  51 S7        30.24S
$$




USA.gov is the U.S. government's official web portal to all federal, state and local government web resources and services.